QPF
0.09 0.07 0.05 0.07 0.10 0.11 0.10 0.10 0.11 0.11 0.14 0.13 0.12 0.13 0.13 0.16 0.15 0.14 0.14 0.14 0.16 0.17 0.15 0.14 0.15 0.18 0.15 0.14 0.17 0.22 0.22 0.15 0.12 0.09 0.07 0.06 0.08 0.09 0.10 0.13 0.17 0.15 0.06
0.07 0.07 0.07 0.07 0.09 0.10 0.10 0.08 0.08 0.08 0.09 0.10 0.11 0.12 0.12 0.12 0.12 0.13 0.12 0.13 0.15 0.16 0.15 0.14 0.15 0.18 0.17 0.15 0.16 0.16 0.13 0.12 0.11 0.08 0.06 0.06 0.07 0.07 0.08 0.10 0.17 0.10 0.05
0.05 0.06 0.06 0.07 0.07 0.08 0.10 0.09 0.09 0.08 0.08 0.09 0.09 0.11 0.12 0.12 0.12 0.11 0.11 0.12 0.14 0.13 0.12 0.12 0.13 0.15 0.17 0.16 0.14 0.10 0.09 0.10 0.10 0.09 0.10 0.08 0.04 0.04 0.05 0.07 0.08 0.05 0.03
0.05 0.05 0.05 0.07 0.08 0.07 0.09 0.11 0.09 0.08 0.09 0.09 0.10 0.11 0.14 0.14 0.12 0.12 0.11 0.13 0.12 0.09 0.11 0.14 0.15 0.16 0.15 0.15 0.13 0.11 0.09 0.07 0.08 0.12 0.15 0.12 0.06 0.04 0.06 0.05 0.04 0.03 0.03
0.05 0.04 0.04 0.06 0.08 0.06 0.08 0.11 0.09 0.08 0.09 0.10 0.10 0.11 0.12 0.12 0.12 0.11 0.15 0.16 0.13 0.13 0.15 0.17 0.15 0.15 0.14 0.15 0.14 0.12 0.10 0.09 0.09 0.12 0.11 0.13 0.10 0.06 0.06 0.05 0.05 0.04 0.03
0.04 0.03 0.03 0.06 0.08 0.08 0.10 0.10 0.08 0.07 0.10 0.10 0.10 0.11 0.13 0.13 0.14 0.12 0.13 0.13 0.13 0.15 0.14 0.14 0.12 0.12 0.13 0.15 0.15 0.12 0.11 0.10 0.10 0.10 0.10 0.12 0.10 0.06 0.05 0.05 0.06 0.05 0.03
0.03 0.03 0.04 0.05 0.06 0.08 0.11 0.12 0.09 0.07 0.09 0.11 0.10 0.10 0.13 0.14 0.13 0.09 0.09 0.10 0.10 0.10 0.09 0.10 0.14 0.15 0.16 0.20 0.17 0.13 0.13 0.13 0.11 0.09 0.09 0.10 0.09 0.06 0.05 0.06 0.06 0.07 0.05
0.05 0.05 0.06 0.06 0.07 0.09 0.14 0.16 0.12 0.08 0.10 0.11 0.10 0.10 0.11 0.11 0.09 0.07 0.07 0.07 0.07 0.08 0.08 0.09 0.16 0.17 0.19 0.24 0.18 0.12 0.12 0.11 0.10 0.10 0.09 0.10 0.10 0.07 0.05 0.05 0.05 0.06 0.06
0.07 0.09 0.10 0.09 0.10 0.13 0.16 0.18 0.15 0.12 0.11 0.12 0.11 0.10 0.13 0.14 0.08 0.06 0.05 0.06 0.06 0.07 0.08 0.10 0.16 0.18 0.20 0.24 0.18 0.13 0.12 0.09 0.08 0.07 0.06 0.09 0.08 0.06 0.06 0.05 0.04 0.06 0.05
0.06 0.05 0.07 0.07 0.06 0.07 0.10 0.11 0.11 0.12 0.12 0.14 0.13 0.15 0.19 0.14 0.07 0.05 0.04 0.04 0.04 0.06 0.08 0.07 0.11 0.15 0.17 0.19 0.14 0.11 0.09 0.08 0.08 0.07 0.06 0.07 0.07 0.06 0.07 0.05 0.05 0.07 0.07
0.04 0.03 0.03 0.02 0.02 0.04 0.05 0.05 0.07 0.08 0.08 0.09 0.12 0.13 0.14 0.10 0.08 0.07 0.04 0.04 0.05 0.08 0.08 0.07 0.07 0.07 0.10 0.14 0.11 0.08 0.07 0.06 0.07 0.09 0.10 0.08 0.08 0.07 0.08 0.06 0.05 0.05 0.05
0.04 0.03 0.02 0.02 0.01 0.02 0.04 0.06 0.10 0.10 0.09 0.10 0.10 0.12 0.15 0.11 0.10 0.07 0.05 0.04 0.03 0.06 0.07 0.06 0.07 0.05 0.08 0.14 0.12 0.07 0.05 0.05 0.07 0.07 0.06 0.05 0.05 0.06 0.09 0.09 0.06 0.05 0.05
0.03 0.04 0.03 0.02 0.01 0.02 0.05 0.08 0.11 0.12 0.10 0.07 0.08 0.13 0.13 0.12 0.08 0.07 0.08 0.06 0.05 0.06 0.07 0.06 0.06 0.08 0.10 0.17 0.13 0.08 0.06 0.06 0.06 0.06 0.06 0.07 0.06 0.09 0.16 0.16 0.12 0.10 0.06
0.06 0.05 0.05 0.04 0.03 0.03 0.03 0.05 0.07 0.07 0.07 0.06 0.08 0.08 0.08 0.11 0.10 0.10 0.09 0.10 0.08 0.09 0.09 0.08 0.09 0.10 0.13 0.15 0.12 0.10 0.08 0.06 0.07 0.08 0.05 0.04 0.04 0.06 0.15 0.22 0.20 0.15 0.10
0.07 0.08 0.06 0.05 0.04 0.04 0.05 0.06 0.04 0.04 0.04 0.04 0.05 0.05 0.06 0.08 0.09 0.09 0.09 0.12 0.11 0.10 0.10 0.12 0.11 0.12 0.15 0.15 0.11 0.09 0.08 0.06 0.06 0.07 0.06 0.06 0.06 0.08 0.12 0.17 0.14 0.12 0.13
0.05 0.06 0.05 0.05 0.05 0.05 0.05 0.04 0.03 0.02 0.03 0.03 0.03 0.03 0.04 0.06 0.09 0.07 0.08 0.09 0.11 0.13 0.12 0.12 0.11 0.13 0.15 0.13 0.11 0.08 0.10 0.07 0.04 0.04 0.06 0.09 0.12 0.14 0.14 0.17 0.14 0.10 0.11
0.05 0.04 0.04 0.04 0.04 0.05 0.05 0.04 0.03 0.03 0.02 0.03 0.03 0.03 0.03 0.04 0.07 0.07 0.08 0.08 0.11 0.12 0.13 0.12 0.12 0.13 0.13 0.11 0.11 0.09 0.07 0.07 0.06 0.06 0.07 0.09 0.11 0.09 0.11 0.14 0.12 0.11 0.11
0.03 0.03 0.03 0.03 0.03 0.03 0.05 0.05 0.04 0.04 0.04 0.04 0.04 0.04 0.03 0.03 0.04 0.06 0.06 0.07 0.09 0.09 0.09 0.10 0.12 0.12 0.13 0.12 0.11 0.10 0.09 0.08 0.06 0.05 0.06 0.08 0.09 0.08 0.07 0.07 0.06 0.08 0.10
0.01 0.02 0.03 0.04 0.05 0.06 0.07 0.06 0.05 0.08 0.08 0.05 0.05 0.05 0.04 0.02 0.02 0.06 0.07 0.08 0.07 0.08 0.08 0.07 0.11 0.12 0.14 0.13 0.10 0.09 0.07 0.06 0.05 0.04 0.03 0.03 0.06 0.09 0.09 0.07 0.05 0.04 0.05
0.01 0.02 0.02 0.03 0.04 0.04 0.06 0.08 0.08 0.08 0.08 0.06 0.06 0.06 0.05 0.04 0.03 0.07 0.10 0.08 0.06 0.07 0.08 0.08 0.11 0.11 0.12 0.12 0.09 0.09 0.07 0.07 0.06 0.05 0.04 0.04 0.04 0.04 0.07 0.09 0.09 0.06 0.04
0.01 0.02 0.03 0.04 0.03 0.05 0.08 0.08 0.08 0.08 0.09 0.08 0.07 0.05 0.05 0.05 0.05 0.08 0.09 0.09 0.08 0.07 0.07 0.07 0.10 0.10 0.09 0.10 0.13 0.13 0.09 0.08 0.08 0.06 0.06 0.07 0.05 0.04 0.05 0.07 0.09 0.08 0.06
0.00 0.01 0.02 0.03 0.03 0.03 0.05 0.07 0.07 0.07 0.07 0.07 0.07 0.07 0.04 0.04 0.04 0.06 0.09 0.10 0.08 0.09 0.08 0.08 0.09 0.09 0.08 0.08 0.12 0.16 0.15 0.14 0.11 0.08 0.08 0.07 0.06 0.07 0.06 0.04 0.04 0.06 0.08
0.01 0.00 0.01 0.02 0.02 0.03 0.04 0.05 0.07 0.07 0.06 0.07 0.07 0.07 0.04 0.03 0.03 0.05 0.07 0.08 0.08 0.09 0.10 0.08 0.08 0.09 0.09 0.09 0.10 0.14 0.17 0.19 0.17 0.13 0.08 0.05 0.06 0.07 0.05 0.04 0.03 0.04 0.05
0.00 0.00 0.00 0.01 0.02 0.02 0.02 0.03 0.05 0.05 0.06 0.07 0.06 0.07 0.05 0.03 0.02 0.03 0.04 0.06 0.07 0.09 0.11 0.09 0.10 0.12 0.13 0.12 0.11 0.11 0.12 0.16 0.17 0.17 0.12 0.06 0.05 0.05 0.05 0.05 0.06 0.06 0.07
0.00 0.00 0.01 0.02 0.02 0.02 0.01 0.03 0.04 0.04 0.05 0.06 0.06 0.08 0.06 0.04 0.03 0.02 0.02 0.05 0.07 0.09 0.09 0.10 0.12 0.12 0.12 0.12 0.11 0.10 0.11 0.13 0.13 0.15 0.16 0.13 0.08 0.05 0.04 0.05 0.08 0.08 0.11
0.00 0.00 0.01 0.02 0.03 0.03 0.03 0.03 0.03 0.04 0.05 0.07 0.08 0.08 0.08 0.06 0.05 0.04 0.04 0.05 0.07 0.08 0.08 0.09 0.09 0.10 0.10 0.11 0.10 0.10 0.10 0.11 0.13 0.14 0.15 0.14 0.11 0.08 0.06 0.06 0.07 0.07 0.07
MSLP
1008.55 1008.43 1008.39 1008.44 1008.57 1008.73 1008.90 1009.04 1009.15 1009.24 1009.34 1009.50 1009.73 1010.05 1010.45 1010.88 1011.33 1011.73 1012.08 1012.36 1012.58 1012.77 1012.97 1013.18 1013.43 1013.71 1014.01 1014.30 1014.57 1014.79 1014.97 1015.11 1015.22 1015.33 1015.44 1015.58 1015.74 1015.91 1016.10 1016.29 1016.48 1016.66 1016.83
1008.51 1008.56 1008.64 1008.79 1008.96 1009.14 1009.28 1009.38 1009.44 1009.49 1009.58 1009.74 1010.00 1010.37 1010.82 1011.31 1011.80 1012.23 1012.59 1012.86 1013.07 1013.25 1013.42 1013.62 1013.85 1014.10 1014.37 1014.62 1014.83 1015.01 1015.15 1015.26 1015.37 1015.50 1015.65 1015.83 1016.03 1016.24 1016.45 1016.65 1016.82 1016.98 1017.12
1008.37 1008.58 1008.82 1009.08 1009.34 1009.55 1009.70 1009.78 1009.80 1009.82 1009.88 1010.03 1010.30 1010.68 1011.15 1011.66 1012.15 1012.59 1012.94 1013.22 1013.43 1013.61 1013.79 1014.00 1014.22 1014.47 1014.70 1014.90 1015.06 1015.18 1015.27 1015.36 1015.46 1015.61 1015.81 1016.04 1016.30 1016.56 1016.80 1017.01 1017.18 1017.32 1017.45
1008.12 1008.49 1008.89 1009.29 1009.66 1009.95 1010.14 1010.22 1010.24 1010.23 1010.26 1010.39 1010.63 1011.00 1011.45 1011.93 1012.40 1012.82 1013.15 1013.42 1013.64 1013.85 1014.07 1014.30 1014.56 1014.81 1015.02 1015.19 1015.29 1015.34 1015.38 1015.43 1015.52 1015.69 1015.93 1016.22 1016.54 1016.86 1017.14 1017.37 1017.54 1017.68 1017.80
1007.81 1008.31 1008.86 1009.42 1009.91 1010.31 1010.56 1010.69 1010.71 1010.70 1010.72 1010.82 1011.04 1011.36 1011.75 1012.18 1012.59 1012.95 1013.26 1013.51 1013.75 1013.99 1014.26 1014.56 1014.87 1015.14 1015.36 1015.49 1015.54 1015.53 1015.50 1015.51 1015.58 1015.76 1016.03 1016.37 1016.75 1017.12 1017.44 1017.69 1017.88 1018.02 1018.15
1007.51 1008.10 1008.77 1009.46 1010.08 1010.58 1010.92 1011.10 1011.17 1011.18 1011.21 1011.30 1011.48 1011.75 1012.08 1012.43 1012.76 1013.06 1013.31 1013.54 1013.80 1014.09 1014.43 1014.80 1015.17 1015.49 1015.72 1015.83 1015.83 1015.76 1015.67 1015.62 1015.66 1015.83 1016.12 1016.50 1016.92 1017.33 1017.68 1017.96 1018.16 1018.32 1018.45
1007.29 1007.93 1008.67 1009.45 1010.17 1010.75 1011.17 1011.42 1011.54 1011.60 1011.65 1011.74 1011.91 1012.15 1012.42 1012.70 1012.95 1013.17 1013.37 1013.58 1013.85 1014.18 1014.59 1015.04 1015.48 1015.86 1016.10 1016.20 1016.17 1016.03 1015.87 1015.76 1015.76 1015.91 1016.20 1016.60 1017.05 1017.49 1017.86 1018.16 1018.37 1018.53 1018.67
1007.22 1007.85 1008.61 1009.42 1010.18 1010.82 1011.29 1011.59 1011.77 1011.87 1011.97 1012.10 1012.28 1012.50 1012.74 1012.97 1013.16 1013.31 1013.47 1013.66 1013.93 1014.30 1014.77 1015.29 1015.79 1016.21 1016.48 1016.58 1016.50 1016.32 1016.10 1015.93 1015.88 1016.00 1016.28 1016.68 1017.14 1017.59 1017.98 1018.29 1018.51 1018.66 1018.81
1007.35 1007.93 1008.65 1009.43 1010.17 1010.80 1011.27 1011.60 1011.81 1011.96 1012.11 1012.30 1012.52 1012.77 1013.01 1013.21 1013.37 1013.49 1013.61 1013.79 1014.06 1014.46 1014.96 1015.53 1016.08 1016.53 1016.81 1016.90 1016.79 1016.57 1016.30 1016.08 1015.99 1016.08 1016.35 1016.74 1017.20 1017.66 1018.05 1018.36 1018.57 1018.72 1018.86
1007.68 1008.19 1008.83 1009.53 1010.18 1010.74 1011.17 1011.47 1011.69 1011.88 1012.08 1012.32 1012.60 1012.90 1013.17 1013.39 1013.55 1013.66 1013.77 1013.94 1014.22 1014.62 1015.14 1015.73 1016.29 1016.75 1017.03 1017.11 1016.98 1016.73 1016.42 1016.18 1016.06 1016.13 1016.38 1016.77 1017.22 1017.68 1018.08 1018.38 1018.59 1018.73 1018.86
1008.19 1008.61 1009.14 1009.72 1010.26 1010.70 1011.04 1011.29 1011.48 1011.67 1011.90 1012.19 1012.54 1012.89 1013.22 1013.48 1013.67 1013.81 1013.93 1014.10 1014.37 1014.77 1015.28 1015.86 1016.41 1016.86 1017.12 1017.18 1017.04 1016.76 1016.44 1016.18 1016.05 1016.11 1016.36 1016.74 1017.20 1017.66 1018.06 1018.37 1018.58 1018.71 1018.82
1008.80 1009.14 1009.57 1010.02 1010.42 1010.73 1010.95 1011.11 1011.24 1011.41 1011.65 1011.98 1012.37 1012.78 1013.17 1013.49 1013.73 1013.90 1014.05 1014.23 1014.50 1014.88 1015.37 1015.90 1016.41 1016.82 1017.05 1017.08 1016.93 1016.65 1016.33 1016.07 1015.95 1016.01 1016.26 1016.65 1017.12 1017.59 1018.00 1018.31 1018.53 1018.66 1018.76
1009.41 1009.70 1010.04 1010.37 1010.65 1010.83 1010.94 1011.00 1011.07 1011.20 1011.42 1011.75 1012.17 1012.62 1013.05 1013.42 1013.71 1013.94 1014.12 1014.32 1014.59 1014.95 1015.38 1015.86 1016.32 1016.67 1016.85 1016.85 1016.69 1016.41 1016.10 1015.86 1015.75 1015.83 1016.08 1016.48 1016.96 1017.44 1017.86 1018.19 1018.42 1018.57 1018.67
1009.95 1010.21 1010.49 1010.74 1010.91 1011.01 1011.03 1011.01 1011.02 1011.10 1011.29 1011.60 1012.01 1012.46 1012.92 1013.32 1013.66 1013.92 1014.14 1014.37 1014.64 1014.97 1015.36 1015.77 1016.15 1016.43 1016.56 1016.53 1016.35 1016.08 1015.79 1015.57 1015.47 1015.56 1015.82 1016.21 1016.69 1017.18 1017.62 1017.97 1018.22 1018.39 1018.50
1010.33 1010.58 1010.83 1011.03 1011.16 1011.21 1011.18 1011.13 1011.10 1011.14 1011.29 1011.56 1011.93 1012.36 1012.81 1013.22 1013.58 1013.88 1014.13 1014.38 1014.65 1014.96 1015.30 1015.65 1015.95 1016.16 1016.24 1016.18 1015.99 1015.72 1015.45 1015.24 1015.16 1015.24 1015.48 1015.86 1016.31 1016.79 1017.23 1017.60 1017.88 1018.08 1018.22
1010.54 1010.78 1011.02 1011.21 1011.33 1011.38 1011.36 1011.32 1011.29 1011.31 1011.43 1011.65 1011.97 1012.35 1012.75 1013.14 1013.50 1013.82 1014.10 1014.37 1014.64 1014.94 1015.24 1015.53 1015.77 1015.92 1015.95 1015.86 1015.67 1015.41 1015.15 1014.95 1014.86 1014.91 1015.11 1015.43 1015.84 1016.27 1016.70 1017.07 1017.37 1017.60 1017.78
1010.59 1010.82 1011.04 1011.24 1011.39 1011.48 1011.52 1011.52 1011.53 1011.57 1011.67 1011.85 1012.10 1012.41 1012.74 1013.09 1013.43 1013.74 1014.04 1014.33 1014.62 1014.90 1015.18 1015.43 1015.63 1015.74 1015.74 1015.63 1015.44 1015.20 1014.95 1014.75 1014.63 1014.63 1014.75 1014.99 1015.30 1015.66 1016.02 1016.37 1016.68 1016.94 1017.15
1010.56 1010.74 1010.94 1011.14 1011.33 1011.48 1011.60 1011.69 1011.77 1011.85 1011.95 1012.10 1012.28 1012.51 1012.77 1013.06 1013.35 1013.65 1013.95 1014.26 1014.56 1014.86 1015.13 1015.37 1015.54 1015.63 1015.62 1015.53 1015.35 1015.13 1014.89 1014.68 1014.52 1014.45 1014.47 1014.57 1014.76 1015.00 1015.27 1015.56 1015.84 1016.11 1016.36
1010.52 1010.64 1010.80 1010.98 1011.19 1011.41 1011.62 1011.81 1011.97 1012.11 1012.23 1012.36 1012.49 1012.64 1012.81 1013.02 1013.27 1013.54 1013.84 1014.16 1014.48 1014.79 1015.08 1015.31 1015.49 1015.58 1015.60 1015.53 1015.39 1015.20 1014.98 1014.76 1014.56 1014.40 1014.30 1014.25 1014.28 1014.36 1014.51 1014.70 1014.94 1015.20 1015.46
1010.53 1010.58 1010.68 1010.83 1011.05 1011.31 1011.60 1011.88 1012.12 1012.33 1012.48 1012.59 1012.67 1012.75 1012.85 1012.98 1013.17 1013.41 1013.70 1014.02 1014.36 1014.70 1015.00 1015.26 1015.46 1015.58 1015.64 1015.62 1015.54 1015.40 1015.22 1015.00 1014.76 1014.51 1014.28 1014.07 1013.92 1013.83 1013.82 1013.90 1014.05 1014.28 1014.55
1010.63 1010.62 1010.65 1010.77 1010.97 1011.25 1011.58 1011.93 1012.25 1012.50 1012.68 1012.78 1012.83 1012.85 1012.87 1012.94 1013.07 1013.27 1013.54 1013.87 1014.22 1014.57 1014.90 1015.19 1015.42 1015.59 1015.70 1015.75 1015.74 1015.67 1015.53 1015.34 1015.07 1014.76 1014.41 1014.05 1013.72 1013.46 1013.29 1013.23 1013.29 1013.47 1013.73
1010.80 1010.76 1010.74 1010.82 1010.99 1011.27 1011.62 1012.01 1012.36 1012.66 1012.85 1012.95 1012.96 1012.93 1012.90 1012.90 1012.98 1013.14 1013.39 1013.70 1014.06 1014.42 1014.77 1015.08 1015.35 1015.57 1015.74 1015.86 1015.93 1015.94 1015.87 1015.71 1015.45 1015.09 1014.66 1014.18 1013.70 1013.28 1012.95 1012.76 1012.73 1012.84 1013.07
1010.97 1010.95 1010.93 1010.97 1011.12 1011.38 1011.73 1012.12 1012.49 1012.80 1013.00 1013.08 1013.07 1013.00 1012.92 1012.87 1012.90 1013.03 1013.25 1013.55 1013.90 1014.26 1014.62 1014.94 1015.23 1015.49 1015.71 1015.90 1016.04 1016.13 1016.14 1016.03 1015.81 1015.44 1014.97 1014.41 1013.83 1013.29 1012.84 1012.54 1012.41 1012.46 1012.65
1011.05 1011.10 1011.12 1011.17 1011.31 1011.56 1011.88 1012.26 1012.62 1012.92 1013.11 1013.19 1013.16 1013.06 1012.95 1012.87 1012.86 1012.95 1013.15 1013.42 1013.75 1014.10 1014.44 1014.76 1015.06 1015.33 1015.58 1015.81 1016.02 1016.18 1016.26 1016.22 1016.05 1015.72 1015.25 1014.67 1014.05 1013.44 1012.91 1012.53 1012.33 1012.32 1012.48
1010.94 1011.12 1011.22 1011.32 1011.48 1011.71 1012.02 1012.37 1012.71 1012.99 1013.17 1013.23 1013.19 1013.08 1012.96 1012.86 1012.83 1012.90 1013.07 1013.32 1013.62 1013.94 1014.25 1014.54 1014.82 1015.08 1015.34 1015.59 1015.83 1016.05 1016.19 1016.23 1016.13 1015.86 1015.44 1014.90 1014.29 1013.67 1013.12 1012.70 1012.46 1012.40 1012.52
1010.59 1010.93 1011.15 1011.33 1011.52 1011.76 1012.06 1012.38 1012.70 1012.96 1013.13 1013.19 1013.15 1013.05 1012.92 1012.82 1012.79 1012.85 1013.00 1013.22 1013.49 1013.77 1014.04 1014.29 1014.53 1014.75 1014.99 1015.23 1015.49 1015.73 1015.92 1016.02 1016.00 1015.82 1015.49 1015.03 1014.49 1013.92 1013.40 1012.99 1012.73 1012.65 1012.73
Thickness
5785 5784 5782 5782 5782 5782 5782 5783 5782 5781 5780 5779 5779 5778 5778 5778 5778 5778 5777 5776 5775 5774 5774 5773 5773 5773 5773 5773 5771 5769 5768 5767 5766 5765 5764 5763 5762 5761 5760 5759 5757 5755 5753
5788 5784 5781 5781 5781 5780 5780 5780 5780 5779 5778 5777 5777 5777 5776 5776 5776 5775 5775 5774 5774 5773 5773 5772 5771 5771 5770 5770 5768 5767 5766 5765 5764 5763 5763 5761 5760 5759 5759 5758 5756 5753 5751
5789 5785 5781 5780 5779 5779 5779 5778 5778 5777 5776 5776 5775 5775 5774 5774 5774 5774 5773 5772 5772 5772 5771 5770 5769 5768 5768 5767 5766 5765 5765 5764 5763 5762 5761 5760 5758 5757 5757 5756 5754 5752 5750
5791 5786 5781 5779 5778 5778 5777 5777 5776 5776 5775 5774 5774 5773 5773 5773 5773 5772 5772 5771 5771 5770 5770 5769 5768 5767 5766 5765 5764 5764 5764 5764 5763 5761 5761 5759 5758 5756 5755 5754 5752 5750 5748
5791 5785 5780 5779 5778 5777 5776 5775 5775 5774 5774 5773 5772 5772 5772 5771 5771 5771 5770 5769 5769 5769 5768 5767 5767 5766 5765 5764 5764 5763 5763 5763 5762 5762 5761 5759 5756 5754 5753 5752 5751 5749 5748
5790 5785 5780 5778 5777 5777 5776 5775 5774 5773 5773 5772 5772 5771 5770 5770 5769 5769 5768 5768 5768 5767 5767 5766 5766 5765 5764 5764 5763 5763 5763 5762 5762 5762 5761 5758 5755 5753 5752 5750 5749 5748 5746
5791 5786 5780 5778 5777 5777 5776 5775 5774 5773 5772 5771 5771 5770 5769 5768 5767 5767 5767 5767 5767 5766 5765 5765 5765 5764 5764 5763 5762 5762 5762 5762 5762 5763 5761 5758 5755 5753 5751 5750 5748 5747 5746
5791 5786 5780 5778 5777 5776 5776 5775 5774 5772 5771 5770 5770 5769 5768 5767 5767 5766 5766 5766 5766 5765 5764 5764 5763 5764 5764 5762 5762 5762 5762 5762 5763 5764 5760 5757 5754 5753 5751 5749 5748 5747 5746
5792 5787 5782 5779 5777 5776 5775 5774 5774 5773 5772 5770 5769 5769 5768 5767 5766 5766 5765 5765 5764 5764 5763 5763 5762 5763 5763 5762 5761 5761 5761 5762 5762 5763 5761 5757 5755 5753 5751 5749 5748 5747 5745
5791 5789 5785 5783 5780 5777 5775 5774 5774 5773 5772 5771 5770 5769 5768 5767 5766 5766 5765 5764 5764 5763 5762 5762 5761 5761 5761 5761 5761 5761 5761 5762 5763 5764 5761 5758 5756 5754 5752 5750 5748 5747 5745
5788 5788 5788 5786 5784 5782 5780 5777 5775 5773 5773 5772 5771 5770 5769 5768 5768 5766 5766 5765 5764 5764 5763 5762 5761 5760 5760 5760 5761 5761 5761 5762 5764 5763 5761 5759 5756 5754 5752 5750 5749 5747 5746
5784 5787 5788 5787 5786 5784 5783 5780 5778 5776 5774 5773 5772 5771 5770 5770 5769 5768 5766 5766 5765 5764 5763 5762 5761 5760 5760 5760 5761 5761 5761 5763 5764 5763 5760 5758 5756 5754 5752 5751 5749 5748 5746
5788 5788 5788 5788 5786 5785 5784 5782 5781 5779 5776 5775 5774 5773 5772 5771 5770 5769 5767 5766 5766 5765 5764 5763 5762 5761 5762 5761 5762 5762 5762 5764 5764 5763 5759 5757 5756 5754 5752 5751 5750 5748 5747
5788 5788 5788 5788 5786 5785 5784 5784 5782 5780 5777 5776 5774 5774 5773 5772 5771 5771 5769 5769 5768 5768 5766 5765 5764 5763 5764 5764 5763 5763 5763 5763 5763 5762 5759 5757 5756 5754 5753 5751 5749 5748 5747
5789 5789 5788 5787 5784 5784 5783 5783 5783 5781 5779 5778 5776 5775 5774 5773 5772 5771 5770 5770 5770 5769 5768 5766 5766 5766 5764 5764 5764 5763 5762 5762 5762 5760 5758 5757 5756 5754 5753 5751 5750 5749 5747
5790 5789 5789 5788 5786 5784 5784 5783 5784 5783 5781 5780 5778 5776 5775 5773 5772 5771 5770 5770 5770 5770 5769 5767 5767 5765 5764 5764 5764 5763 5761 5760 5760 5760 5758 5756 5755 5754 5753 5752 5751 5749 5747
5793 5792 5790 5789 5788 5785 5785 5785 5785 5784 5783 5781 5779 5777 5775 5773 5772 5772 5770 5770 5770 5769 5769 5768 5767 5766 5765 5764 5763 5762 5761 5760 5760 5760 5758 5756 5754 5753 5753 5752 5751 5749 5748
5797 5794 5793 5794 5790 5787 5786 5786 5786 5785 5784 5782 5779 5777 5776 5774 5773 5772 5770 5769 5769 5769 5768 5767 5766 5764 5763 5761 5761 5761 5761 5760 5760 5759 5758 5756 5755 5753 5752 5751 5750 5749 5747
5801 5797 5794 5794 5791 5789 5788 5787 5786 5785 5783 5782 5780 5778 5776 5775 5773 5772 5770 5769 5768 5768 5767 5766 5765 5763 5760 5759 5759 5760 5760 5760 5760 5760 5758 5757 5756 5755 5753 5751 5750 5748 5747
5804 5800 5797 5795 5792 5791 5789 5787 5785 5784 5783 5782 5780 5778 5776 5775 5774 5772 5770 5768 5768 5767 5765 5765 5762 5762 5760 5759 5759 5759 5759 5760 5759 5759 5758 5757 5756 5755 5753 5752 5749 5747 5746
5806 5802 5799 5795 5793 5791 5788 5785 5782 5781 5782 5781 5781 5779 5777 5775 5774 5772 5770 5768 5767 5765 5764 5764 5761 5760 5759 5759 5755 5752 5755 5758 5757 5757 5757 5756 5755 5754 5753 5751 5749 5747 5746
5807 5804 5800 5797 5795 5793 5790 5788 5786 5784 5783 5782 5781 5779 5778 5776 5774 5773 5770 5768 5767 5765 5763 5762 5761 5758 5758 5759 5753 5746 5742 5745 5751 5756 5755 5754 5754 5753 5752 5751 5749 5748 5746
5810 5807 5805 5800 5797 5795 5793 5791 5789 5786 5783 5781 5779 5778 5778 5776 5774 5773 5770 5768 5766 5765 5762 5761 5760 5757 5753 5756 5756 5748 5740 5736 5741 5747 5750 5752 5752 5751 5751 5750 5749 5747 5745
5815 5812 5808 5803 5800 5797 5795 5791 5787 5782 5778 5779 5779 5778 5778 5777 5775 5772 5770 5768 5766 5764 5762 5760 5760 5758 5755 5751 5753 5754 5751 5747 5738 5736 5743 5748 5749 5749 5748 5749 5747 5745 5743
5821 5816 5810 5805 5801 5799 5796 5792 5788 5785 5783 5782 5780 5778 5776 5776 5775 5773 5770 5767 5764 5763 5761 5760 5758 5757 5755 5752 5750 5750 5749 5748 5746 5737 5733 5738 5742 5745 5746 5745 5744 5742 5740
5824 5818 5812 5805 5800 5798 5795 5792 5788 5785 5782 5780 5778 5775 5775 5775 5774 5773 5771 5767 5764 5762 5760 5758 5757 5755 5753 5752 5751 5749 5747 5744 5742 5739 5734 5734 5734 5738 5741 5741 5740 5739 5737